Time,TemperatureC,DewpointC,PressurehPa,WindDirection,WindDirectionDegrees,WindSpeedKMH,WindSpeedGustKMH,Humidity,HourlyPrecipMM,Conditions,Clouds,dailyrainMM,SolarRadiationWatts/m^2,UVIndex,SoftwareType,DateUTC
2026-05-07 00:03:49,12.3,12.6,993.9,NW,315,0,0,75.6,0.0,,,0.0,2,0,n/a,2026-05-06T22:03:49Z
2026-05-07 00:09:48,12.3,12.8,994.1,East,90,0.8,2,76.5,0.0,,,0.0,2,0,n/a,2026-05-06T22:09:48Z
2026-05-07 00:12:49,12.3,12.9,993.9,ESE,112,0.6,0.6,77.1,0.0,,,0.0,0,0,n/a,2026-05-06T22:12:49Z
2026-05-07 00:18:48,12.3,12.8,993.9,ESE,112,0.1,0.5,77,0.0,,,0.0,2,0,n/a,2026-05-06T22:18:48Z
2026-05-07 00:24:48,12.1,12.8,994.1,SE,135,0,0,76.8,0.0,,,0.0,2,0,n/a,2026-05-06T22:24:48Z
2026-05-07 00:27:45,12.1,12.7,994.1,North,0,1.3,1.3,76.8,0.0,,,0.5,0,0,n/a,2026-05-06T22:27:45Z
2026-05-07 00:33:49,12,12.6,994.1,SE,128,1.4,1.9,77.2,0.0,,,0.5,2,0,n/a,2026-05-06T22:33:49Z
2026-05-07 00:39:49,11.9,12.6,994.4,SE,135,0.4,1.1,77.5,0.0,,,0.5,2,0,n/a,2026-05-06T22:39:49Z
2026-05-07 00:42:48,11.8,12.7,994.1,SE,135,0.6,0.6,78,0.0,,,0.5,0,0,n/a,2026-05-06T22:42:48Z
2026-05-07 00:48:48,11.8,12.8,994.4,NE,45,0,0,78.5,0.0,,,1.0,2,0,n/a,2026-05-06T22:48:48Z
2026-05-07 00:54:49,11.8,12.7,994.4,East,90,0.1,0.5,78.9,0.0,,,1.5,2,0,n/a,2026-05-06T22:54:49Z
2026-05-07 00:57:49,11.8,12.8,994.4,East,90,0,0,79,0.0,,,1.5,0,0,n/a,2026-05-06T22:57:49Z
2026-05-07 01:03:45,11.8,12.9,994.4,East,90,0,0,79.2,0.0,,,1.5,0,0,n/a,2026-05-06T23:03:45Z
2026-05-07 01:09:49,11.8,12.9,994.4,NE,45,0,0,79.7,0.0,,,2.0,0,0,n/a,2026-05-06T23:09:49Z
2026-05-07 01:12:49,11.8,13,994.4,East,90,0,0,80.1,0.0,,,2.0,2,0,n/a,2026-05-06T23:12:49Z
2026-05-07 01:18:48,11.8,13,994.4,East,90,0.7,1,80.3,0.0,,,2.0,2,0,n/a,2026-05-06T23:18:48Z
2026-05-07 01:24:49,11.9,13.1,994.4,NE,40,0.7,1,81.3,0.0,,,2.0,2,0,n/a,2026-05-06T23:24:49Z
2026-05-07 01:27:49,11.9,13.2,994.4,East,90,0.9,1.3,81.7,0.0,,,2.0,0,0,n/a,2026-05-06T23:27:49Z
2026-05-07 01:33:48,12,13.3,994.4,South,180,4.6,5.8,82.4,0.0,,,2.0,0,0,n/a,2026-05-06T23:33:48Z
2026-05-07 01:39:45,12,13.4,994.4,South,184,4.3,5.2,83.1,0.0,,,2.5,0,0,n/a,2026-05-06T23:39:45Z
2026-05-07 01:42:49,12,13.4,994.1,NW,314,2.5,2.6,83.3,0.0,,,2.5,0,0,n/a,2026-05-06T23:42:49Z
2026-05-07 01:48:48,12,13.5,994.4,SSW,210,3.1,3.7,83.5,0.0,,,2.5,0,0,n/a,2026-05-06T23:48:48Z
2026-05-07 01:54:48,12,13.5,994.4,SW,216,2,3.3,83.6,0.0,,,2.5,2,0,n/a,2026-05-06T23:54:48Z
2026-05-07 01:57:45,12,13.5,994.1,SSW,202,5.6,5.6,83.6,0.0,,,3.0,0,0,n/a,2026-05-06T23:57:45Z
2026-05-07 02:03:49,12,13.6,994.4,West,271,3,3.3,84,0.0,,,4.1,2,0,n/a,2026-05-07T00:03:49Z
2026-05-07 02:09:48,12,13.5,994.4,West,260,2.6,4.4,83.9,0.0,,,5.1,2,0,n/a,2026-05-07T00:09:48Z
2026-05-07 02:12:45,12,13.5,994.4,West,270,0.6,0.6,83.9,0.0,,,5.1,0,0,n/a,2026-05-07T00:12:45Z
2026-05-07 02:18:48,12,13.5,994.4,West,270,1.5,1.6,84,0.0,,,5.6,2,0,n/a,2026-05-07T00:18:48Z
2026-05-07 02:24:48,11.9,13.5,994.4,West,270,0.9,2,83.7,0.0,,,5.6,2,0,n/a,2026-05-07T00:24:48Z
2026-05-07 02:27:49,11.9,13.3,994.4,NW,315,0.3,0.7,83.3,0.0,,,5.6,0,0,n/a,2026-05-07T00:27:49Z
2026-05-07 02:33:48,11.9,13.4,994.4,North,0,0.2,0.7,83.3,0.0,,,6.1,2,0,n/a,2026-05-07T00:33:48Z
2026-05-07 02:39:48,11.9,13.4,994.4,WNW,284,2.2,3.2,83.5,0.0,,,6.1,2,0,n/a,2026-05-07T00:39:48Z
2026-05-07 02:42:49,11.9,13.4,994.4,WSW,247,3.2,3.3,83.6,0.0,,,6.1,0,0,n/a,2026-05-07T00:42:49Z
2026-05-07 02:48:45,11.8,13.3,994.4,West,270,2,2.2,83.5,0.0,,,6.1,2,0,n/a,2026-05-07T00:48:45Z
2026-05-07 02:54:49,11.8,13.3,994.4,WSW,256,2.9,4,83.8,0.0,,,6.6,2,0,n/a,2026-05-07T00:54:49Z
2026-05-07 02:57:49,11.8,13.3,994.4,WSW,258,3.2,3.2,83.7,0.0,,,6.6,0,0,n/a,2026-05-07T00:57:49Z
2026-05-07 03:03:49,11.8,13.2,994.4,West,270,2,4.3,83.9,0.0,,,6.6,2,0,n/a,2026-05-07T01:03:49Z
2026-05-07 03:09:48,11.8,13.2,994.4,NW,316,3.4,3.9,83.9,0.0,,,6.6,2,0,n/a,2026-05-07T01:09:48Z
2026-05-07 03:12:48,11.8,13.3,994.4,West,270,4.8,5.3,83.8,0.0,,,6.6,0,0,n/a,2026-05-07T01:12:48Z
2026-05-07 03:18:48,11.7,13.2,994.4,West,270,3.6,6.5,84,0.0,,,6.6,2,0,n/a,2026-05-07T01:18:48Z
2026-05-07 03:24:45,11.7,13.2,994.4,West,270,2.4,4.5,84.4,0.0,,,6.6,0,0,n/a,2026-05-07T01:24:45Z
2026-05-07 03:27:48,11.7,13.3,994.4,WNW,283,4.9,5.2,84.9,0.0,,,7.1,0,0,n/a,2026-05-07T01:27:48Z
2026-05-07 03:33:48,11.7,13.2,994.6,SSW,211,4,5.3,84.7,0.0,,,7.1,0,0,n/a,2026-05-07T01:33:48Z
2026-05-07 03:36:49,11.6,13.2,994.4,North,0,4.7,5.3,85.1,0.0,,,7.1,0,0,n/a,2026-05-07T01:36:49Z
2026-05-07 03:42:48,11.5,13.2,994.4,SW,214,8.5,9.2,85.6,0.0,,,7.1,0,0,n/a,2026-05-07T01:42:48Z
2026-05-07 03:48:48,11.4,13.2,994.4,SSW,197,8.7,9.2,85.8,0.0,,,7.6,2,0,n/a,2026-05-07T01:48:48Z
2026-05-07 03:54:48,11.4,13.2,994.6,WSW,243,7.6,9.1,86.2,0.0,,,7.6,2,0,n/a,2026-05-07T01:54:48Z
2026-05-07 03:57:45,11.3,13.2,994.4,South,180,11.1,11.1,86.6,0.0,,,7.6,0,0,n/a,2026-05-07T01:57:45Z
2026-05-07 04:03:48,11.3,13.2,994.6,South,180,6.1,6.5,86.5,0.0,,,7.6,2,0,n/a,2026-05-07T02:03:48Z
2026-05-07 04:09:48,11.3,13.1,994.6,SSW,193,7.8,10.3,86.6,0.0,,,7.6,2,0,n/a,2026-05-07T02:09:48Z
2026-05-07 04:12:49,11.2,13,994.6,South,191,6.4,6.5,86.6,0.0,,,7.6,0,0,n/a,2026-05-07T02:12:49Z
2026-05-07 04:18:48,11,13,994.6,SSW,206,11.1,13.6,86.6,0.0,,,7.6,2,0,n/a,2026-05-07T02:18:48Z
2026-05-07 04:24:48,11,12.9,994.9,South,189,5.2,6.5,86.7,0.0,,,7.6,2,0,n/a,2026-05-07T02:24:48Z
2026-05-07 04:27:48,11,12.9,994.9,SSE,166,3.9,4.6,86.8,0.0,,,7.6,2,0,n/a,2026-05-07T02:27:48Z
2026-05-07 04:33:45,11,12.9,994.9,SSE,162,2,2.6,86.8,0.0,,,7.6,2,0,n/a,2026-05-07T02:33:45Z
2026-05-07 04:39:49,11,12.9,994.9,SSW,198,4.2,4.9,86.5,0.0,,,8.1,2,0,n/a,2026-05-07T02:39:49Z
2026-05-07 04:42:48,11,13,994.6,NNW,337,1.8,1.9,86.6,0.0,,,8.1,0,0,n/a,2026-05-07T02:42:48Z
2026-05-07 04:48:49,10.9,12.9,994.9,SSW,212,5.4,8.5,86.4,0.0,,,8.1,0,0,n/a,2026-05-07T02:48:49Z
2026-05-07 04:54:49,11,12.8,994.9,South,180,2,2.6,86.6,0.0,,,8.1,2,0,n/a,2026-05-07T02:54:49Z
2026-05-07 04:57:48,10.9,12.8,994.9,SSW,206,3.8,4.5,86.7,0.0,,,8.1,0,0,n/a,2026-05-07T02:57:48Z
2026-05-07 05:03:49,10.9,12.8,994.6,South,186,1.6,3.3,86.6,0.0,,,8.1,2,0,n/a,2026-05-07T03:03:49Z
2026-05-07 05:09:45,10.8,12.8,994.9,South,180,4.2,4.6,86.7,0.0,,,8.1,0,0,n/a,2026-05-07T03:09:45Z
2026-05-07 05:12:49,10.9,12.7,994.6,WSW,247,3.2,3.2,86.5,0.0,,,8.1,2,0,n/a,2026-05-07T03:12:49Z
2026-05-07 05:18:48,10.9,12.8,994.9,SSW,210,4.1,4.9,86.8,0.0,,,8.6,2,0,n/a,2026-05-07T03:18:48Z
2026-05-07 05:24:49,10.9,12.9,994.9,WSW,248,2.6,4.5,86.9,0.0,,,9.1,0,0,n/a,2026-05-07T03:24:49Z
2026-05-07 05:27:45,10.9,12.9,994.9,SW,225,7.9,7.9,87.1,0.0,,,9.1,2,0,n/a,2026-05-07T03:27:45Z
2026-05-07 05:33:49,10.9,12.8,994.9,SW,227,4.8,5.7,87.4,0.0,,,9.7,2,0,n/a,2026-05-07T03:33:49Z
2026-05-07 05:39:48,10.8,12.9,994.9,SW,225,7.5,9.6,87.5,0.0,,,9.7,2,0,n/a,2026-05-07T03:39:48Z
2026-05-07 05:42:45,10.9,12.9,994.9,South,180,3.3,3.3,87.8,0.0,,,9.7,0,0,n/a,2026-05-07T03:42:45Z
2026-05-07 05:48:48,10.9,13,994.9,SW,231,5.1,5.9,87.6,0.0,,,9.7,2,0,n/a,2026-05-07T03:48:48Z
2026-05-07 05:54:49,10.9,12.9,994.9,West,270,2.3,3.3,87.6,0.0,,,10.2,2,0,n/a,2026-05-07T03:54:49Z
2026-05-07 05:57:49,10.9,12.9,994.9,WNW,292,2.6,3.2,87.9,0.0,,,10.7,2,0,n/a,2026-05-07T03:57:49Z
2026-05-07 06:03:48,10.9,12.8,995.1,SW,233,2.3,2.6,87.6,0.0,,,10.7,4,0,n/a,2026-05-07T04:03:48Z
2026-05-07 06:09:49,10.8,12.8,995.1,WNW,296,7.5,9.8,87.7,0.0,,,11.2,4,0,n/a,2026-05-07T04:09:49Z
2026-05-07 06:12:48,10.9,12.7,995.1,West,281,8.5,8.7,87.6,0.0,,,11.2,4,0,n/a,2026-05-07T04:12:48Z
2026-05-07 06:18:49,10.8,12.7,995.1,NNW,330,4.2,5.9,87.5,0.0,,,11.2,8,0,n/a,2026-05-07T04:18:49Z
2026-05-07 06:24:48,10.8,12.6,995.4,West,270,5.9,7.1,87.3,0.0,,,11.7,10,0,n/a,2026-05-07T04:24:48Z
2026-05-07 06:27:49,10.7,12.6,995.4,West,270,5.8,5.9,87.2,0.0,,,11.7,12,0,n/a,2026-05-07T04:27:49Z
2026-05-07 06:33:45,10.6,12.6,995.4,WNW,286,7,8.5,86.8,0.0,,,11.7,14,0,n/a,2026-05-07T04:33:45Z
2026-05-07 06:39:49,10.7,12.5,995.4,West,270,4.5,5.2,86.8,0.0,,,11.7,16,0,n/a,2026-05-07T04:39:49Z
2026-05-07 06:42:48,10.7,12.4,995.6,West,270,2.6,2.7,86.3,0.0,,,11.7,16,0,n/a,2026-05-07T04:42:48Z
2026-05-07 06:48:48,10.5,12.4,995.9,West,261,3.6,3.9,86.4,0.0,,,11.7,18,0,n/a,2026-05-07T04:48:48Z
2026-05-07 06:54:48,10.5,12.4,995.9,WSW,257,4.3,4.8,86.5,0.0,,,11.7,22,0,n/a,2026-05-07T04:54:48Z
2026-05-07 06:57:48,10.5,12.3,995.9,West,270,3.5,3.7,86.5,0.0,,,11.7,22,0,n/a,2026-05-07T04:57:48Z
2026-05-07 07:03:49,10.6,12.2,995.9,West,270,5.3,6.7,86.3,0.0,,,11.7,24,0,n/a,2026-05-07T05:03:49Z
2026-05-07 07:09:45,10.6,12.3,995.9,SW,236,3.3,5.1,86.2,0.0,,,11.7,30,0,n/a,2026-05-07T05:09:45Z
2026-05-07 07:12:49,10.6,12.2,995.9,West,270,5.1,6.5,86.2,0.0,,,11.7,34,0,n/a,2026-05-07T05:12:49Z
2026-05-07 07:18:48,10.6,12.2,996.1,West,278,5.7,7.8,86.3,0.0,,,11.7,44,0,n/a,2026-05-07T05:18:48Z
2026-05-07 07:24:49,10.6,12.2,996.1,West,270,3.8,6,86.2,0.0,,,11.7,46,0,n/a,2026-05-07T05:24:49Z
2026-05-07 07:27:45,10.8,12.2,996.1,NW,315,1.3,1.3,86,0.0,,,11.7,38,0,n/a,2026-05-07T05:27:45Z
2026-05-07 07:33:49,10.7,12.2,996.4,NW,318,2.6,3.9,85.7,0.0,,,11.7,36,0,n/a,2026-05-07T05:33:49Z
2026-05-07 07:39:48,10.7,12.2,996.4,WNW,297,5.5,6.6,85.4,0.0,,,11.7,28,0,n/a,2026-05-07T05:39:48Z
2026-05-07 07:42:45,10.6,12.1,996.4,West,270,3.3,3.3,85.4,0.0,,,11.7,26,0,n/a,2026-05-07T05:42:45Z
2026-05-07 07:48:49,10.5,12.1,996.4,WNW,289,5.5,6.5,85.2,0.0,,,12.2,30,0,n/a,2026-05-07T05:48:49Z
2026-05-07 07:54:49,10.6,12,996.4,SW,236,2.9,4.6,85.3,0.0,,,12.2,36,0,n/a,2026-05-07T05:54:49Z
2026-05-07 07:57:48,10.6,12.1,996.4,SW,234,2.9,3.3,85.8,0.0,,,12.2,38,0,n/a,2026-05-07T05:57:48Z
2026-05-07 08:03:49,10.6,12.1,996.6,West,270,2.9,4.5,85.8,0.0,,,12.2,40,0,n/a,2026-05-07T06:03:49Z
2026-05-07 08:09:48,10.6,12.1,996.8,WNW,285,1.9,3.2,85.6,0.0,,,12.2,50,0,n/a,2026-05-07T06:09:48Z
2026-05-07 08:12:48,10.7,12.1,996.8,West,270,0,0,85.5,0.0,,,12.2,56,0,n/a,2026-05-07T06:12:48Z
2026-05-07 08:18:49,10.8,12.1,996.8,North,0,5.7,5.9,85.4,0.0,,,12.2,58,0,n/a,2026-05-07T06:18:49Z
2026-05-07 08:24:49,10.7,12.1,996.8,WSW,254,3.2,3.3,85.2,0.0,,,12.2,56,0,n/a,2026-05-07T06:24:49Z
2026-05-07 08:27:48,10.8,12,996.8,NW,307,3.2,3.3,85,0.0,,,12.2,56,0,n/a,2026-05-07T06:27:48Z
2026-05-07 08:33:45,10.8,12.1,996.8,WNW,294,3.9,5.2,85,0.0,,,12.2,56,0,n/a,2026-05-07T06:33:45Z
2026-05-07 08:39:49,10.8,12.1,997.1,WNW,294,3.5,3.9,84.9,0.0,,,12.2,50,0,n/a,2026-05-07T06:39:49Z
2026-05-07 08:42:49,10.8,12.1,997.1,WSW,247,2.3,2.6,85,0.0,,,12.2,48,0,n/a,2026-05-07T06:42:49Z
2026-05-07 08:48:49,10.8,12,997.3,West,270,2.8,4.1,85.1,0.0,,,12.2,48,0,n/a,2026-05-07T06:48:49Z
2026-05-07 08:54:48,10.8,12,997.1,West,272,1.9,3.3,85,0.0,,,12.2,52,0,n/a,2026-05-07T06:54:48Z
2026-05-07 08:57:49,10.8,12,997.3,North,0,4,4.2,85.1,0.0,,,12.2,52,0,n/a,2026-05-07T06:57:49Z
2026-05-07 09:03:49,10.8,12,997.3,West,265,2.9,3.9,85.1,0.0,,,12.2,74,0,n/a,2026-05-07T07:03:49Z
2026-05-07 09:09:45,10.9,12,997.3,WNW,286,3.4,4.3,85.1,0.0,,,12.2,82,0,n/a,2026-05-07T07:09:45Z
2026-05-07 09:12:48,10.9,12.1,997.3,WNW,303,4.1,4.3,85,0.0,,,12.2,72,0,n/a,2026-05-07T07:12:48Z
2026-05-07 09:18:48,10.9,12,997.3,WNW,286,5,7.2,84.4,0.0,,,12.7,68,0,n/a,2026-05-07T07:18:48Z
2026-05-07 09:24:48,10.9,12,997.6,WSW,245,3.2,3.9,84.2,0.0,,,12.7,72,0,n/a,2026-05-07T07:24:48Z
2026-05-07 09:27:45,10.9,12.1,997.6,West,270,2,2,84.4,0.0,,,12.7,76,0,n/a,2026-05-07T07:27:45Z
2026-05-07 09:33:49,11,12,997.6,West,259,2.3,4.1,84.4,0.0,,,12.7,84,0,n/a,2026-05-07T07:33:49Z
2026-05-07 09:39:48,10.9,12,997.8,WSW,257,4.4,6.6,84.2,0.0,,,12.7,96,0,n/a,2026-05-07T07:39:48Z
2026-05-07 09:42:48,11.1,12,997.8,West,270,2.7,3.3,84,0.0,,,12.7,104,0,n/a,2026-05-07T07:42:48Z
2026-05-07 09:48:49,11.2,12,997.8,WNW,289,6.2,8.3,83.9,0.0,,,12.7,104,0,n/a,2026-05-07T07:48:49Z
2026-05-07 09:54:49,11,11.9,997.8,West,273,5.8,8.4,83.4,0.0,,,12.7,98,0,n/a,2026-05-07T07:54:49Z
2026-05-07 09:57:49,11.2,11.8,997.8,West,270,4.3,4.3,83.2,0.0,,,12.7,98,0,n/a,2026-05-07T07:57:49Z
2026-05-07 10:03:48,11.3,12,997.8,West,268,4.9,5.9,83.8,0.0,,,12.7,100,0,n/a,2026-05-07T08:03:48Z
2026-05-07 10:09:45,11.4,11.9,997.8,West,262,5.1,5.2,83.6,0.0,,,12.7,104,0,n/a,2026-05-07T08:09:45Z
2026-05-07 10:12:48,11.3,12,998.1,NW,321,7.1,7.9,83.7,0.0,,,12.7,102,0,n/a,2026-05-07T08:12:48Z
2026-05-07 10:18:45,11.4,12,998.1,West,270,6,7.7,83.7,0.0,,,12.7,122,0,n/a,2026-05-07T08:18:45Z
2026-05-07 10:24:49,11.6,12.1,998.3,West,278,4.5,6.4,83.6,0.0,,,12.7,116,0,n/a,2026-05-07T08:24:49Z
2026-05-07 10:27:48,11.4,11.9,998.3,West,270,7.6,7.7,82.6,0.0,,,12.7,112,0,n/a,2026-05-07T08:27:48Z
2026-05-07 10:33:48,11.3,11.8,998.3,WSW,248,7.1,10.9,82.3,0.0,,,12.7,108,0,n/a,2026-05-07T08:33:48Z
2026-05-07 10:39:49,11.5,11.9,998.3,NW,305,2.6,3.2,82.8,0.0,,,12.7,124,0,n/a,2026-05-07T08:39:49Z
2026-05-07 10:42:49,11.4,12,998.3,NNW,335,4.3,4.8,82.9,0.0,,,12.7,130,0,n/a,2026-05-07T08:42:49Z
2026-05-07 10:48:49,11.5,12,998.3,WSW,240,4.3,6.5,82.5,0.0,,,12.7,138,0,n/a,2026-05-07T08:48:49Z
2026-05-07 10:54:45,11.6,12,998.6,NNW,332,6.4,7.2,82.4,0.0,,,12.7,136,0,n/a,2026-05-07T08:54:45Z
2026-05-07 10:57:48,11.5,12,998.8,West,270,3.7,4.3,82.1,0.0,,,12.7,126,0,n/a,2026-05-07T08:57:48Z
2026-05-07 11:03:49,11.5,11.8,998.8,WSW,254,6,9.3,81.7,0.0,,,12.7,134,0,n/a,2026-05-07T09:03:49Z
2026-05-07 11:09:48,11.7,11.9,998.8,West,270,9.1,12.6,82.1,0.0,,,12.7,136,0,n/a,2026-05-07T09:09:48Z
2026-05-07 11:12:48,11.7,12.1,998.8,SW,235,3.5,3.7,82.4,0.0,,,12.7,138,0,n/a,2026-05-07T09:12:48Z
2026-05-07 11:18:48,11.6,12.1,998.8,WSW,246,9.4,11.2,82,0.0,,,12.7,134,0,n/a,2026-05-07T09:18:48Z
2026-05-07 11:24:48,11.7,11.9,998.8,WSW,245,6.2,7.2,81.4,0.0,,,12.7,154,0,n/a,2026-05-07T09:24:48Z
2026-05-07 11:27:45,11.7,12.1,998.8,West,270,7.2,7.2,81.9,0.0,,,12.7,120,0,n/a,2026-05-07T09:27:45Z
2026-05-07 11:33:49,11.6,11.9,999.1,SW,234,4.2,4.8,81.3,0.0,,,12.7,88,0,n/a,2026-05-07T09:33:49Z
2026-05-07 11:39:48,11.3,11.9,999.1,SW,225,5.4,7.9,81.4,0.0,,,12.7,84,0,n/a,2026-05-07T09:39:48Z
2026-05-07 11:42:48,11.3,11.8,999.3,WSW,249,4.9,5.3,81.2,0.0,,,12.7,68,0,n/a,2026-05-07T09:42:48Z
2026-05-07 11:48:48,11,11.7,999.3,WSW,240,4,7.9,81.2,0.0,,,12.7,70,0,n/a,2026-05-07T09:48:48Z
2026-05-07 11:54:48,11.1,11.7,999.3,West,270,6.7,8.8,81.5,0.0,,,12.7,128,0,n/a,2026-05-07T09:54:48Z
2026-05-07 11:57:49,11.5,11.8,999.3,West,270,4.6,4.7,81.7,0.0,,,12.7,154,0,n/a,2026-05-07T09:57:49Z
2026-05-07 12:03:48,12,12.1,999.3,WSW,240,4.5,5.2,82.5,0.0,,,12.7,182,0,n/a,2026-05-07T10:03:48Z
2026-05-07 12:09:49,12.2,12.2,999.3,West,277,6.1,8.1,82,0.0,,,12.7,190,0,n/a,2026-05-07T10:09:49Z
2026-05-07 12:12:48,12.1,12.1,999.6,West,259,5,5.2,81.4,0.0,,,12.7,160,0,n/a,2026-05-07T10:12:48Z
2026-05-07 12:18:45,12,12.1,999.3,WSW,239,7.7,7.9,81.2,0.0,,,12.7,188,0,n/a,2026-05-07T10:18:45Z
2026-05-07 12:24:49,12,12,999.8,WSW,248,6.4,8.5,80.3,0.0,,,12.7,170,0,n/a,2026-05-07T10:24:49Z
2026-05-07 12:27:48,11.8,11.9,999.8,NW,315,8.4,8.5,80,0.0,,,12.7,160,0,n/a,2026-05-07T10:27:48Z
2026-05-07 12:33:49,12.2,11.9,999.8,WNW,290,9.6,11.8,80.3,0.0,,,12.7,210,0,n/a,2026-05-07T10:33:49Z
2026-05-07 12:39:48,12.3,12,999.8,West,270,8,9.6,79.6,0.0,,,12.7,166,0,n/a,2026-05-07T10:39:48Z
2026-05-07 12:42:49,12,12,999.8,North,0,2,2.1,80,0.0,,,12.7,142,0,n/a,2026-05-07T10:42:49Z
2026-05-07 12:48:49,11.5,12.1,999.8,SW,229,7.4,9,80.2,0.0,,,12.7,112,0,n/a,2026-05-07T10:48:49Z
2026-05-07 12:54:49,11.4,12,999.8,SW,225,9.7,12.3,79.9,0.0,,,12.7,84,0,n/a,2026-05-07T10:54:49Z
2026-05-07 12:57:45,11.2,11.9,999.8,West,270,5.2,5.3,80,0.0,,,12.7,68,0,n/a,2026-05-07T10:57:45Z
2026-05-07 13:03:49,11.3,11.9,999.8,WSW,240,4.5,7.9,80,0.0,,,12.7,72,0,n/a,2026-05-07T11:03:49Z
2026-05-07 13:09:48,11.1,11.7,999.8,West,270,6,7.9,79.8,0.0,,,12.7,70,0,n/a,2026-05-07T11:09:48Z
2026-05-07 13:12:48,11.1,11.7,999.8,West,259,7.4,7.9,80.1,0.0,,,12.7,72,0,n/a,2026-05-07T11:12:48Z
2026-05-07 13:18:49,11.1,11.7,999.8,NW,305,8.3,10,80.1,0.0,,,12.7,68,0,n/a,2026-05-07T11:18:49Z
2026-05-07 13:24:49,10.8,11.5,1000.0,West,262,8.7,10.5,80.2,0.0,,,12.7,46,0,n/a,2026-05-07T11:24:49Z
2026-05-07 13:27:48,10.6,11.5,1000.0,West,279,7.7,9.1,80.7,0.0,,,12.7,54,0,n/a,2026-05-07T11:27:48Z
2026-05-07 13:33:48,10.6,11.4,1000.3,NW,311,11.1,14.4,81.1,0.0,,,12.7,64,0,n/a,2026-05-07T11:33:48Z
2026-05-07 13:39:49,10.6,11.5,1000.3,SW,228,5.1,6.6,81.9,0.0,,,12.7,68,0,n/a,2026-05-07T11:39:49Z
2026-05-07 13:42:49,10.3,11.5,1000.3,West,259,9.7,10.4,82.1,0.0,,,12.7,66,0,n/a,2026-05-07T11:42:49Z
2026-05-07 13:48:45,10.5,11.4,1000.3,WNW,300,4.1,4.6,81.8,0.0,,,12.7,90,0,n/a,2026-05-07T11:48:45Z
2026-05-07 13:54:49,10.8,11.6,1000.3,West,273,5.3,7.1,82.6,0.0,,,12.7,102,0,n/a,2026-05-07T11:54:49Z
2026-05-07 13:57:48,10.8,11.6,1000.3,West,270,8.6,8.8,82.6,0.0,,,12.7,102,0,n/a,2026-05-07T11:57:48Z
2026-05-07 14:03:45,10.9,11.6,1000.3,West,270,6.6,7.1,82.7,0.0,,,12.7,110,0,n/a,2026-05-07T12:03:45Z
2026-05-07 14:09:48,11.1,11.6,1000.3,WNW,287,8.4,9.9,82.6,0.0,,,12.7,148,0,n/a,2026-05-07T12:09:48Z
2026-05-07 14:12:49,11.2,11.6,1000.3,WSW,247,7.3,8.5,82.3,0.0,,,12.7,166,0,n/a,2026-05-07T12:12:49Z
2026-05-07 14:18:48,11.5,11.7,1000.3,WNW,295,6.6,7.6,82.4,0.0,,,12.7,174,0,n/a,2026-05-07T12:18:48Z
2026-05-07 14:24:49,11.6,11.9,1000.5,NW,316,4.6,5.2,82,0.0,,,12.7,188,0,n/a,2026-05-07T12:24:49Z
2026-05-07 14:27:49,11.7,11.9,1000.5,NW,315,11.8,12,81.6,0.0,,,12.7,212,0,n/a,2026-05-07T12:27:49Z
2026-05-07 14:33:49,12,12,1000.5,NNW,333,4.8,5.4,81.4,0.0,,,12.7,262,0,n/a,2026-05-07T12:33:49Z
2026-05-07 14:39:49,12.3,11.8,1000.8,WNW,298,6.3,6.9,80,0.0,,,12.7,304,0,n/a,2026-05-07T12:39:49Z
2026-05-07 14:42:49,12.7,12.1,1000.5,NNW,327,6.2,7.2,80.2,0.0,,,12.7,300,0,n/a,2026-05-07T12:42:49Z
2026-05-07 14:48:49,13.2,12.2,1000.8,WNW,291,6.3,9.8,79.7,0.0,,,12.7,288,0,n/a,2026-05-07T12:48:49Z
2026-05-07 14:54:45,13.3,12.3,1000.8,NW,310,6.8,8.1,79.1,0.0,,,12.7,306,0,n/a,2026-05-07T12:54:45Z
2026-05-07 14:57:48,13.3,12.1,1000.8,West,270,12.4,12.5,77.9,0.0,,,12.7,268,0,n/a,2026-05-07T12:57:48Z
2026-05-07 15:03:49,13.4,12.1,1000.8,West,275,9.2,9.9,77.8,0.0,,,12.7,276,0,n/a,2026-05-07T13:03:49Z
2026-05-07 15:09:48,13.6,11.9,1000.8,NW,306,4.6,5.2,76.3,0.0,,,12.7,254,0,n/a,2026-05-07T13:09:48Z
2026-05-07 15:12:48,13.8,12,1000.8,West,279,4,4.3,76.8,0.0,,,12.7,228,0,n/a,2026-05-07T13:12:48Z
2026-05-07 15:18:48,13.5,12.3,1000.8,SW,231,5.6,6.6,77.6,0.0,,,12.7,220,0,n/a,2026-05-07T13:18:48Z
2026-05-07 15:24:48,13.1,12.2,1000.8,WSW,246,8.3,11.2,77.1,0.0,,,12.7,166,0,n/a,2026-05-07T13:24:48Z
2026-05-07 15:27:45,13.2,12.3,1000.8,SSW,202,7.2,7.3,77.6,0.0,,,12.7,156,0,n/a,2026-05-07T13:27:45Z
2026-05-07 15:33:48,12.7,12.3,1000.8,WSW,247,10.2,11.3,77.7,0.0,,,12.7,154,0,n/a,2026-05-07T13:33:48Z
2026-05-07 15:39:48,12.7,12.3,1001.0,SW,217,8.4,12.1,78,0.0,,,12.7,198,0,n/a,2026-05-07T13:39:48Z
2026-05-07 15:42:49,12.8,12.5,1001.0,WNW,303,13.3,14.3,78.9,0.0,,,12.7,220,0,n/a,2026-05-07T13:42:49Z
2026-05-07 15:48:49,13.3,12.5,1001.0,WSW,254,8.6,9.8,78.4,0.0,,,12.7,232,0,n/a,2026-05-07T13:48:49Z
2026-05-07 15:54:48,13.3,12.4,1001.0,West,264,4.9,5.9,78,0.0,,,12.7,226,0,n/a,2026-05-07T13:54:48Z
2026-05-07 15:57:48,13,12.6,1001.0,SW,225,6.1,7.7,77.9,0.0,,,12.7,232,0,n/a,2026-05-07T13:57:48Z
2026-05-07 16:03:45,13.3,12.6,1001.0,SW,225,2.3,3.9,77.8,0.0,,,12.7,234,0,n/a,2026-05-07T14:03:45Z
2026-05-07 16:09:48,13,12.4,1001.0,West,277,6.7,7.8,76.7,0.0,,,12.7,170,0,n/a,2026-05-07T14:09:48Z
2026-05-07 16:12:48,12.7,12,1001.0,West,259,5.4,5.9,75.7,0.0,,,12.7,126,0,n/a,2026-05-07T14:12:48Z
2026-05-07 16:18:49,12.1,12.2,1001.0,SW,230,7.2,11.1,77.1,0.0,,,12.7,94,0,n/a,2026-05-07T14:18:49Z
2026-05-07 16:24:49,12,12.1,1001.0,West,269,9.4,11.2,77.7,0.0,,,12.7,88,0,n/a,2026-05-07T14:24:49Z
2026-05-07 16:27:48,11.8,12.1,1001.3,NW,323,6.2,7.1,78.2,0.0,,,12.7,104,0,n/a,2026-05-07T14:27:48Z
2026-05-07 16:33:45,11.9,12.3,1001.3,West,264,5.5,7.2,78.7,0.0,,,12.7,138,0,n/a,2026-05-07T14:33:45Z
2026-05-07 16:39:48,12.1,12.4,1001.3,SSW,213,6.4,7.7,79.2,0.0,,,12.7,158,0,n/a,2026-05-07T14:39:48Z
2026-05-07 16:42:48,12.5,12.7,1001.0,WNW,302,3.4,4.2,80,0.0,,,12.7,170,0,n/a,2026-05-07T14:42:48Z
2026-05-07 16:48:49,12.4,12.3,1001.3,WSW,238,4.6,7.1,78.8,0.0,,,12.7,170,0,n/a,2026-05-07T14:48:49Z
2026-05-07 16:54:48,12.4,12.3,1001.3,SW,229,4.5,6.4,78.8,0.0,,,12.7,158,0,n/a,2026-05-07T14:54:48Z
2026-05-07 16:57:49,12.5,12.4,1001.3,SW,225,4.3,4.6,79,0.0,,,12.7,138,0,n/a,2026-05-07T14:57:49Z
2026-05-07 17:03:45,12.6,12.4,1001.3,SW,225,3.3,5.9,79,0.0,,,12.7,130,0,n/a,2026-05-07T15:03:45Z
2026-05-07 17:09:48,12.4,12.6,1001.3,WSW,242,3.5,4.3,79.4,0.0,,,12.7,120,0,n/a,2026-05-07T15:09:48Z
2026-05-07 17:12:49,12.2,12.5,1001.3,WNW,289,9.9,10.2,79.4,0.0,,,12.7,116,0,n/a,2026-05-07T15:12:49Z
2026-05-07 17:18:45,12.4,12.5,1001.3,SW,225,4.4,4.6,79.6,0.0,,,12.7,114,0,n/a,2026-05-07T15:18:45Z
2026-05-07 17:24:48,12.3,12.5,1001.3,NW,305,2.5,3.2,79.8,0.0,,,12.7,112,0,n/a,2026-05-07T15:24:48Z
2026-05-07 17:27:48,12.3,12.5,1001.3,WSW,257,3.5,3.9,79.6,0.0,,,12.7,96,0,n/a,2026-05-07T15:27:48Z
2026-05-07 17:30:49,12.4,12.5,1001.3,WSW,247,3.1,3.2,79.7,0.0,,,12.7,94,0,n/a,2026-05-07T15:30:49Z
2026-05-07 17:39:45,11.9,12.3,1001.3,SW,225,6.2,7.9,79.3,0.0,,,12.7,80,0,n/a,2026-05-07T15:39:45Z
2026-05-07 17:42:49,11.7,12.1,1001.3,WSW,238,1.1,1.5,79,0.0,,,12.7,72,0,n/a,2026-05-07T15:42:49Z
2026-05-07 17:48:49,11.8,12.1,1001.3,West,279,2.2,3.3,79.1,0.0,,,12.7,70,0,n/a,2026-05-07T15:48:49Z
2026-05-07 17:54:49,11.6,12.1,1001.5,NW,305,3.2,4.5,79.5,0.0,,,12.7,62,0,n/a,2026-05-07T15:54:49Z
2026-05-07 17:57:48,11.1,12.1,1001.5,NNW,337,4.5,4.6,79,0.0,,,12.7,42,0,n/a,2026-05-07T15:57:48Z
2026-05-07 18:03:48,10.5,11.7,1001.5,NW,320,2.9,5.4,78.3,0.0,,,12.7,42,0,n/a,2026-05-07T16:03:48Z
2026-05-07 18:09:45,10.7,11.6,1001.8,NE,36,0.8,1.3,78.4,0.0,,,12.7,54,0,n/a,2026-05-07T16:09:45Z
2026-05-07 18:12:48,10.7,11.4,1001.8,ENE,78,3.8,3.9,78.3,0.0,,,13.2,62,0,n/a,2026-05-07T16:12:48Z
2026-05-07 18:18:48,10.8,11.5,1001.8,ENE,77,3.4,4.6,79.2,0.0,,,13.2,62,0,n/a,2026-05-07T16:18:48Z
2026-05-07 18:24:48,10.7,11.5,1001.8,ESE,102,3.5,4.2,80.5,0.0,,,13.2,46,0,n/a,2026-05-07T16:24:48Z
2026-05-07 18:33:48,10.5,11.5,1001.8,East,79,1.3,2.8,81.4,0.0,,,13.2,32,0,n/a,2026-05-07T16:33:48Z
2026-05-07 18:39:48,10.5,11.5,1001.8,North,0,0.3,1.1,81.1,0.0,,,13.7,34,0,n/a,2026-05-07T16:39:48Z
2026-05-07 18:42:48,10.1,11.4,1001.8,NNW,348,7.8,7.9,80.7,0.0,,,13.7,38,0,n/a,2026-05-07T16:42:48Z
2026-05-07 18:48:49,10.1,11.4,1002.0,NNE,17,5.1,9,80.9,0.0,,,14.2,44,0,n/a,2026-05-07T16:48:49Z
2026-05-07 18:54:49,10.4,11.4,1001.8,North,0,0,0,81.2,0.0,,,14.2,46,0,n/a,2026-05-07T16:54:49Z
2026-05-07 18:57:45,10.5,11.4,1001.8,East,90,0,0,81.2,0.0,,,14.2,44,0,n/a,2026-05-07T16:57:45Z
2026-05-07 19:03:49,10.5,11.4,1002.0,East,90,1.1,2.7,80.8,0.0,,,14.2,44,0,n/a,2026-05-07T17:03:49Z
2026-05-07 19:09:48,10.4,11.4,1002.0,NE,52,1.6,2.7,80.7,0.0,,,14.2,52,0,n/a,2026-05-07T17:09:48Z
2026-05-07 19:12:49,10.4,11.3,1002.0,ESE,102,0.6,0.7,81.1,0.0,,,14.2,54,0,n/a,2026-05-07T17:12:49Z
2026-05-07 19:18:48,10.3,11.1,1002.0,East,90,6.2,7.2,80.5,0.0,,,14.2,50,0,n/a,2026-05-07T17:18:48Z
2026-05-07 19:24:48,10.1,11,1002.3,East,99,3.6,4.5,81,0.0,,,14.2,44,0,n/a,2026-05-07T17:24:48Z
2026-05-07 19:27:49,10.2,11,1002.0,SE,136,0.8,1.1,81.4,0.0,,,14.2,36,0,n/a,2026-05-07T17:27:49Z
2026-05-07 19:33:45,10,10.9,1002.3,NE,36,3.9,4.6,80.8,0.0,,,14.2,30,0,n/a,2026-05-07T17:33:45Z
2026-05-07 19:39:49,9.8,10.7,1002.3,ENE,58,3.2,4.5,80.6,0.0,,,14.2,20,0,n/a,2026-05-07T17:39:49Z
2026-05-07 19:42:48,9.7,10.4,1002.5,NE,45,1.8,2,80.3,0.0,,,14.2,16,0,n/a,2026-05-07T17:42:48Z
2026-05-07 19:48:48,9.7,10.6,1002.5,SW,226,3,4.4,80.7,0.0,,,14.2,16,0,n/a,2026-05-07T17:48:48Z
2026-05-07 19:54:48,9.6,10.5,1002.5,East,86,2.6,5.3,80.6,0.0,,,14.2,16,0,n/a,2026-05-07T17:54:48Z
2026-05-07 19:57:48,9.6,10.5,1002.5,WNW,292,0,0,80.7,0.0,,,14.2,14,0,n/a,2026-05-07T17:57:48Z
2026-05-07 20:00:49,9.3,10.5,1002.5,East,100,3.5,3.9,80.4,0.0,,,14.2,12,0,n/a,2026-05-07T18:00:49Z
2026-05-07 20:09:45,9.2,10.3,1002.8,NE,35,0.8,1,80.5,0.0,,,14.2,12,0,n/a,2026-05-07T18:09:45Z
2026-05-07 20:12:48,9.2,10.1,1002.8,NNE,22,1.2,1.3,79.9,0.0,,,14.2,10,0,n/a,2026-05-07T18:12:48Z
2026-05-07 20:18:49,9.1,10,1002.8,East,80,3.2,6.4,79.8,0.0,,,14.2,10,0,n/a,2026-05-07T18:18:49Z
2026-05-07 20:24:49,9.1,10.1,1002.8,East,96,0.8,1,80.1,0.0,,,14.2,8,0,n/a,2026-05-07T18:24:49Z
2026-05-07 20:27:48,9,10,1002.8,East,90,2.4,2.6,80.2,0.0,,,14.2,6,0,n/a,2026-05-07T18:27:48Z
2026-05-07 20:33:49,8.9,9.9,1002.8,North,0,4.8,9.8,80.1,0.0,,,14.2,6,0,n/a,2026-05-07T18:33:49Z
2026-05-07 20:39:45,8.9,10,1002.8,ESE,112,0,0,80.2,0.0,,,14.2,4,0,n/a,2026-05-07T18:39:45Z
2026-05-07 20:42:48,8.8,10.1,1002.8,East,90,0.3,0.5,80.6,0.0,,,14.2,2,0,n/a,2026-05-07T18:42:48Z
2026-05-07 20:48:48,8.8,10,1003.0,ENE,73,3.7,6.5,80.4,0.0,,,14.2,4,0,n/a,2026-05-07T18:48:48Z
2026-05-07 20:54:48,8.6,9.8,1003.0,NNE,24,3.7,5.3,80.3,0.0,,,14.2,2,0,n/a,2026-05-07T18:54:48Z
2026-05-07 20:57:45,8.6,9.7,1003.0,North,0,0,0,80.3,0.0,,,14.2,2,0,n/a,2026-05-07T18:57:45Z
2026-05-07 21:03:49,8.6,9.8,1003.3,SE,132,1.1,2.1,80.6,0.0,,,14.2,2,0,n/a,2026-05-07T19:03:49Z
2026-05-07 21:09:48,8.5,9.8,1003.3,SE,135,2.1,3.3,80.7,0.0,,,14.2,0,0,n/a,2026-05-07T19:09:48Z
2026-05-07 21:12:48,8.5,9.8,1003.3,SSE,157,0.9,1.3,81,0.0,,,14.2,0,0,n/a,2026-05-07T19:12:48Z
2026-05-07 21:18:48,8.4,9.8,1003.3,North,0,3.1,4.2,81.1,0.0,,,14.2,2,0,n/a,2026-05-07T19:18:48Z
2026-05-07 21:24:48,8.4,9.8,1003.5,SSE,160,2.2,2.6,81.5,0.0,,,14.2,2,0,n/a,2026-05-07T19:24:48Z
2026-05-07 21:27:48,8.4,9.7,1003.3,NNE,32,2.7,3.3,81.7,0.0,,,14.2,2,0,n/a,2026-05-07T19:27:48Z
2026-05-07 21:33:48,8.4,9.7,1003.5,NNW,333,2.5,4.5,81.6,0.0,,,14.2,2,0,n/a,2026-05-07T19:33:48Z
2026-05-07 21:39:48,8.4,9.7,1003.5,NW,318,1.2,1.6,81.4,0.0,,,14.2,2,0,n/a,2026-05-07T19:39:48Z
2026-05-07 21:42:48,8.4,9.8,1003.5,SSW,202,0,0,81.4,0.0,,,14.2,2,0,n/a,2026-05-07T19:42:48Z
2026-05-07 21:48:49,8.4,9.8,1003.8,ENE,67,0.9,2.6,81.6,0.0,,,14.2,2,0,n/a,2026-05-07T19:48:49Z
2026-05-07 21:54:48,8.4,9.6,1003.8,ESE,115,2.1,2.6,81.3,0.0,,,14.2,2,0,n/a,2026-05-07T19:54:48Z
2026-05-07 21:57:49,8.3,9.6,1003.8,ESE,102,2.9,3.1,81.2,0.0,,,14.2,2,0,n/a,2026-05-07T19:57:49Z
2026-05-07 22:03:48,8.3,9.5,1003.8,East,90,2.9,6.4,81.4,0.0,,,14.2,0,0,n/a,2026-05-07T20:03:48Z
2026-05-07 22:09:48,8.3,9.5,1004.0,East,87,4.9,8,81.7,0.0,,,14.2,2,0,n/a,2026-05-07T20:09:48Z